sat.trackr.live / text

‹ back to catalog

STARLINK-36920

NORAD 67947 · 2026-037R

PAYLOAD ACTIVE UNKNOWN

§ Identity

Operator
Country
US
Launch date
2026-02-24
Launch site
AFETR
Launch vehicle
Mass (kg)
RCS (m²)

Purposes: comms

External: N2YO · Heavens-Above · Gunter

§ Orbital elements

Epoch: 2026-05-24T23:42:33.759072Z

Period
94.27 min
Inclination
43.0036°
Eccentricity
0.0001955
Mean motion
15.27598000 rev/d
Perigee alt
481.7 km
Apogee alt
484.3 km
Semi-major
6,861.1 km
B*
7.3438e-4
RAAN
119.4717°
Arg perigee
273.4291°
Mean anomaly
86.6337°
Rev number
1,501

§ Raw data

STARLINK-369201 67947U 26037R   26144.98789073  .00020013  00000+0  73438-3 0  99922 67947  43.0036 119.4717 0001955 273.4291  86.6337 15.27598000 15016

JSON: /api/v1/satellites/67947 · /tle

For live sub-satellite position, see the globe view (requires WebGL).

§ Visibility from observer

Set your observer location to see the next 7 days of passes ≥ 10°. The values pass through the URL so the page stays shareable.

No JS? Fill the form by hand. The geolocation button needs JavaScript.